Track COSMOS 2508 now! 10-day predictions COSMOS 2508 is classified as:
1 40922U 15050C 25317.63996807 .00000037 00000-0 19201-3 0 9990 2 40922 82.4905 212.5109 0014218 149.0880 211.1039 12.42925211460100